Flag for Kiribati Weather past 2 weeks in Kiritimati, Christmas Island, Kiribati

Now
77 °F

Rain. Overcast.


Feels Like: 78 °F
Forecast: 77 / 83 °F
Wind: N/A

Location: Christmas / Cassidy

Current Time: Jul 4, 2015 at 3:22:03 AM

Latest Report: Jul 4, 2015 at 2:00 AM


Visibility: N/A

Pressure: 29.80 "Hg

Humidity: 100%

Dew point: 77 °F

Location of KiritimatiLocation

Historic Weather in Kiritimati — Graph

°F

Kiritimati temperature yesterday

Maximum temperature yesterday: 84 °F (at 10:00 AM)
Minimum temperature yesterday: 79 °F (at 12:00 AM)
Average temperature yesterday: 81 °F

Past Weeks' High & Low Weather Summary

 TemperatureHumidityPressure
High90 °F (Jun 29, 12:00 PM)100% (Jun 19, 2:00 AM)29.83 "Hg (Jun 19, 2:00 AM)
Low77 °F (Jun 19, 2:00 AM)62% (Jul 1, 11:00 AM)29.65 "Hg (Jun 21, 8:00 AM)
Average83 °F84%29.77 "Hg
* Reported Jun 19 2:00 AM — Jul 4 2:00 AM, Kiritimati, Weather by CustomWeather, © 2015

Note: Actual official high and low records may vary slightly from our data, if they occured in-between our weather recording intervals... More about our weather records

Advertising

Kiritimati weather history for previous 24 hours

 ConditionsComfort  
Time TempWeatherWind HumidityBarometerVisibility
2:00 AM
Sat, Jul 4
77 °FRain. Overcast.N/A100%29.80 "HgN/A
12:00 AM79 °FDrizzle. Mostly cloudy.12 mph94%29.83 "HgN/A
11:00 PM
Fri, Jul 3
79 °FScattered showers. Partly cloudy.9 mph89%29.83 "HgN/A
10:00 PM79 °FScattered showers. Partly cloudy.9 mph94%29.83 "HgN/A
9:00 PM79 °FScattered showers. Partly cloudy.7 mph94%29.83 "HgN/A
8:00 PM81 °FPartly cloudy.2 mph89%29.80 "HgN/A
7:00 PM81 °FPartly cloudy.No wind89%29.77 "HgN/A
6:00 PM81 °FScattered showers. Partly cloudy.2 mph89%29.77 "HgN/A
5:00 PM81 °FScattered showers. Partly cloudy.2 mph94%29.74 "HgN/A
4:00 PM81 °FBroken clouds.3 mph89%29.77 "HgN/A
3:00 PM82 °FBroken clouds.9 mph84%29.77 "HgN/A
2:00 PM82 °FBroken clouds.2 mph84%29.77 "HgN/A
1:00 PM82 °FRain showers. Broken clouds.7 mph89%29.77 "HgN/A
12:00 PM84 °FBroken clouds.10 mph84%29.80 "HgN/A
11:00 AM82 °FBroken clouds.7 mph84%29.80 "HgN/A
10:00 AM84 °FScattered clouds.5 mph84%29.80 "HgN/A
9:00 AM82 °FScattered clouds.2 mph84%29.80 "HgN/A
8:00 AM81 °FScattered showers. Passing clouds.No wind89%29.77 "HgN/A
7:00 AM81 °FScattered showers. Scattered clouds.No wind89%29.77 "HgN/A
5:00 AM79 °FScattered clouds.No wind100%29.74 "HgN/A
Weather by CustomWeather, © 2015

See weather overviewHow to use our weather pages